Location: Oro Verde
(31.8170°S, 60.5170°W)
Time: 05:13:14
(UTC-03:00)

ISS - Visible Passes

Search period start: 08 February 2023 00:00
Search period end: 18 February 2023 00:00
Orbit: 412 x 423 km, 51.6° (Epoch: 08 February)

Date Brightness Start Highest point End Pass type
(mag) Time Alt. Az. Time Alt. Az. Time Alt. Az.
08 Feb -0.9 05:13:13 10° SSW 05:15:46 19° SE 05:18:17 10° E visible
08 Feb -0.9 21:51:39 10° NW 21:51:42 10° NW 21:51:42 10° NW visible
09 Feb -0.4 04:25:55 10° S 04:27:27 12° SSE 04:28:59 10° ESE visible
09 Feb -3.8 06:01:11 10° SW 06:04:32 68° NW 06:07:51 10° NE visible
09 Feb -3.4 21:03:45 10° NNW 21:06:58 41° NE 21:08:50 21° ESE visible
09 Feb -0.4 22:41:33 10° WSW 22:41:58 12° WSW 22:41:58 12° WSW visible
10 Feb -3.2 05:13:03 10° SW 05:16:24 58° SE 05:19:43 10° NE visible
10 Feb -1.6 21:52:34 10° W 21:55:32 27° SW 21:58:19 11° SSE visible
11 Feb -1.9 04:27:41 29° SSE 04:28:10 31° SE 04:31:12 10° ENE visible
11 Feb -2.2 06:02:22 10° W 06:04:44 18° NW 06:07:04 10° N visible
11 Feb -2.8 21:03:57 10° WNW 21:07:15 50° SW 21:10:36 10° SE visible
12 Feb -2.4 05:17:58 24° N 05:17:58 24° N 05:19:43 10° NNE visible
12 Feb -0.4 21:54:55 10° SW 21:56:09 12° SSW 21:57:24 10° S visible
13 Feb -0.7 21:05:15 10° W 21:07:40 18° SW 21:10:06 10° S visible
14 Feb -1.5 20:16:12 10° WNW 20:19:13 29° SW 20:22:16 10° SSE visible
16 Feb -0.6 20:18:06 10° WSW 20:19:33 12° SSW 20:21:01 10° S visible
